Regional Weather Roundup
Issued by NWS

Home | Current Version | Previous Version | Text Only | Print | Product List | Glossary On
Versions: 1 2 3 4 5 6 7 8 9 10 11 12 13 14 15 16 17 18 19 20 21 22 23 24 25 26 27 28 29 30 31 32 33 34 35 36 37 38 39 40 41 42 43 44 45 46 47 48 49 50
123
ASUS44 KLIX 180205
RWRLA
LOUISIANA WEATHER ROUNDUP
NATIONAL WEATHER SERVICE NEW ORLEANS LA
800 PM CST WED DEC 17 2014

NOTE: "FAIR" INDICATES FEW OR NO CLOUDS BELOW 12,000 FEET WITH NO
      SIGNIFICANT WEATHER AND/OR OBSTRUCTIONS TO VISIBILITY.
      SKY/WX - SKY CONDITION AND SIGNIFICANT WEATHER.
      TMP - AIR TEMPERATURE.    DP   - DEWPOINT TEMPERATURE.
      RH  - RELATIVE HUMIDITY.  PRES - PRESSURE.
      HX  - HEAT INDEX.         WCI  - WIND CHILL INDEX.

*  THESE STATIONS ARE NOT NWS OR FAA STATIONS AND ARE NOT UNDER
   NWS QUALITY CONTROL.

LAZ040-048-061>063-065-066-069-180300-
SOUTHEAST LOUISIANA

CITY           SKY/WX    TMP DP  RH WIND       PRES   REMARKS
N.O. AUDUBON     N/A     54  44  68 MISG        N/A
N.O. INTL ARPT MOCLDY    52  41  66 E5        30.20R
N.O. LAKEFRONT MOCLDY    54  42  64 CALM      30.21R
N.O. DOWNTOWN* FAIR      55  37  50 CALM      30.21R
SLIDELL        MOCLDY    45  42  89 CALM      30.20R
BATON ROUGE    PTCLDY    49  41  74 E5        30.19S
BOOTHVILLE     PTCLDY    53  49  86 E5        30.21S
BELLE CHASSE   MOCLDY    47  42  83 CALM      30.20R
BOGALUSA*        N/A     46  43  87 CALM      30.22R
GALLIANO*      PTCLDY    55  49  82 MISG      30.20R
NEW ROADS*     FAIR      49  40  69 CALM      30.19R
GONZALES*      FAIR      49  43  80 CALM      30.19F
HAMMOND*       NOT AVBL
HOUMA*         CLOUDY    51  46  81 NE5       30.20S
PORT FOURCHON* CLEAR     57  50  77 E7        30.22S

$$

LAZ041-044-053-054-180300-
SOUTHWEST LOUISIANA

CITY           SKY/WX    TMP DP  RH WIND       PRES   REMARKS
LAKE CHARLES   PTCLDY    52  43  71 E8        30.14F
LAFAYETTE      PTCLDY    52  43  71 E3        30.18S
PATTERSON      MOCLDY    52  43  71 E5        30.19F
SALT POINT       N/A     54  46  74 CALM      30.17S
NEW IBERIA     CLOUDY    51  42  71 SE3       30.19S
CHENAULT AIRPK PTCLDY    52  45  76 E6        30.15F

$$

LAZ027-028-180300-
CENTRAL LOUISIANA

CITY           SKY/WX    TMP DP  RH WIND       PRES   REMARKS
FORT POLK      NOT AVBL
ALEXANDRIA INT PTCLDY    50  41  71 E8        30.15F
ALEXANDRIA     MOCLDY    46  41  82 E5        30.17F

$$

LAZ001-002-180300-
NORTHWEST LOUISIANA

CITY           SKY/WX    TMP DP  RH WIND       PRES   REMARKS
SHREVEPORT     CLOUDY    47  39  74 CALM      30.17R
BARKSDALE AFB  NOT AVBL
DTN SHREVEPORT CLOUDY    46  36  68 E5        30.17R

$$

LAZ014-016-180300-
NORTHEAST LOUISIANA

CITY           SKY/WX    TMP DP  RH WIND       PRES   REMARKS
MONROE         CLOUDY    47  39  74 E7        30.19F
TALLULAH       CLOUDY    48  39  71 N6        30.22S

$$




USA.gov is the U.S. government's official web portal to all federal, state and local government web resources and services.